Location: Go�ngahuizen
(53.0821°N, 5.8849°E)
Time: 16:36:36
(UTC+00:00)

Cosmos 2058 - Pass Details

Date: 09 April 2020
Orbit: 563 x 582 km, 82.5° (Epoch: 28 May)

Event Time Altitude Azimuth Distance (km) Brightness Sun altitude
Rises 19:11:52 0° 357° (N) 2,777 6.8 -7.3°
Reaches altitude 10° 19:14:23 10° 10° (N) 1,877 5.7 -7.6°
Maximum altitude 19:17:49 25° 67° (ENE) 1,176 4.1 -8.1°
Enters shadow 19:21:02 11° 121° (ESE) 1,804 4.8 -8.5°
